Location: ???????????
(44.4062°N, 135.3991°E)
Time: 01:15:45
(UTC+00:00)

Cosmos 2219 Rocket - Pass Details

Date: 19 May 2025
Orbit: 828 x 844 km, 71.0° (Epoch: 16 June)

Event Time Altitude Azimuth Distance (km) Brightness Sun altitude
Rises 13:53:13 0° 343° (NNW) 3,398 6.8 -24.2°
Reaches altitude 10° 13:56:27 10° 2° (N) 2,456 5.6 -24.3°
Maximum altitude 14:00:20 19° 46° (NE) 1,908 4.3 -24.5°
Drops below altitude 10° 14:04:11 10° 90° (E) 2,440 4.5 -24.7°
Enters shadow 14:04:15 10° 90° (E) 2,455 4.5 -24.7°
